Location: Newark
(45.0500°N, 41.9667°E)
Time: 12:58:25
(UTC+00:00)

Starlink (trailer) - Pass Details

Date: 26 July 2019
Orbit: 549 x 550 km, 53.0° (Epoch: 18 August)

Event Time Altitude Azimuth Distance (km) Brightness Sun altitude
Exits shadow 20:58:25 58° 10° (N) 646 4.1 -25.4°
Drops below altitude 10° 21:02:02 10° 54° (NE) 1,827 6.6 -25.5°
Sets 21:04:18 0° 57° (ENE) 2,723 7.5 -25.5°
